"Sample Date","Sample Time","Sensor Name","Sample Value","Units","Flow Rate","Sample Interval","Sample Volume","Laser Status","Number Channels","Micron Size 0","Counts/Channel 0","Micron Size 1","Counts/Channel 1","Micron Size 2","Counts/Channel 2","Micron Size 3","Counts/Channel 3","Micron Size 4","Counts/Channel 4","Micron Size 5","Counts/Channel 5","Micron Size 6","Counts/Channel 6","Micron Size 7","Counts/Channel 7","Micron Size 8","Counts/Channel 8","Micron Size 9","Counts/Channel 9","Micron Size 10","Counts/Channel 10","Micron Size 11","Counts/Channel 11","Micron Size 12","Counts/Channel 12","Micron Size 13","Counts/Channel 13","Micron Size 14","Counts/Channel 14","Micron Size 15","Counts/Channel 15","Micron Size 16","Counts/Channel 16","Micron Size 17","Counts/Channel 17","Micron Size 18","Counts/Channel 18","Micron Size 19","Counts/Channel 19","Micron Size 20","Counts/Channel 20","Micron Size 21","Counts/Channel 21","Micron Size 22","Counts/Channel 22","Micron Size 23","Counts/Channel 23","Micron Size 24","Counts/Channel 24","Micron Size 25","Counts/Channel 25","Micron Size 26","Counts/Channel 26","Micron Size 27","Counts/Channel 27","Micron Size 28","Counts/Channel 28","Micron Size 29","Counts/Channel 29","Micron Size 30","Counts/Channel 30","Micron Size 31","Counts/Channel 31"
"07/08/06","23:00:01","AMMA06",24860.000,"cc",28313.143,6.00,2831.315,1,6,0.100,15150.000,0.200,8590.000,0.300,913.000,0.500,134.000,1.000,73.000,5.000,0
"07/08/06","23:00:07","AMMA06",25095.000,"cc",28312.904,6.00,2831.291,1,6,0.100,15499.000,0.200,8517.000,0.300,878.000,0.500,125.000,1.000,76.000,5.000,0
"07/08/06","23:00:13","AMMA06",24838.000,"cc",28344.721,6.00,2834.472,1,6,0.100,15232.000,0.200,8533.000,0.300,902.000,0.500,103.000,1.000,68.000,5.000,0
"07/08/06","23:00:19","AMMA06",24834.000,"cc",28293.180,6.00,2829.318,1,6,0.100,15071.000,0.200,8643.000,0.300,935.000,0.500,112.000,1.000,73.000,5.000,0
"07/08/06","23:00:25","AMMA06",24771.000,"cc",28363.805,6.00,2836.381,1,6,0.100,15227.000,0.200,8457.000,0.300,912.000,0.500,106.000,1.000,69.000,5.000,0
"07/08/06","23:00:31","AMMA06",24912.000,"cc",28287.109,6.00,2828.711,1,6,0.100,15211.000,0.200,8654.000,0.300,850.000,0.500,119.000,1.000,78.000,5.000,0
"07/08/06","23:00:37","AMMA06",24801.000,"cc",28274.732,6.00,2827.473,1,6,0.100,15129.000,0.200,8594.000,0.300,881.000,0.500,102.000,1.000,95.000,5.000,0
"07/08/06","23:00:43","AMMA06",24998.000,"cc",28337.412,6.00,2833.742,1,6,0.100,15343.000,0.200,8598.000,0.300,887.000,0.500,102.000,1.000,68.000,5.000,0
"07/08/06","23:00:49","AMMA06",24877.000,"cc",28247.186,6.00,2824.719,1,6,0.100,15239.000,0.200,8564.000,0.300,892.000,0.500,112.000,1.000,70.000,5.000,0
"07/08/06","23:00:55","AMMA06",24728.000,"cc",28339.502,6.00,2833.950,1,6,0.100,15072.000,0.200,8504.000,0.300,965.000,0.500,115.000,1.000,72.000,5.000,0
"07/08/06","23:01:01","AMMA06",24738.000,"cc",28360.242,6.00,2836.024,1,6,0.100,15169.000,0.200,8511.000,0.300,899.000,0.500,101.000,1.000,58.000,5.000,0
"07/08/06","23:01:07","AMMA06",24833.000,"cc",28281.479,6.00,2828.148,1,6,0.100,15358.000,0.200,8346.000,0.300,941.000,0.500,116.000,1.000,72.000,5.000,0
"07/08/06","23:01:13","AMMA06",24545.000,"cc",28345.576,6.00,2834.558,1,6,0.100,15048.000,0.200,8407.000,0.300,880.000,0.500,139.000,1.000,71.000,5.000,0
"07/08/06","23:01:19","AMMA06",24849.000,"cc",28283.629,6.00,2828.363,1,6,0.100,15179.000,0.200,8530.000,0.300,919.000,0.500,140.000,1.000,81.000,5.000,0
"07/08/06","23:01:25","AMMA06",25288.000,"cc",28312.162,6.00,2831.216,1,6,0.100,15734.000,0.200,8462.000,0.300,877.000,0.500,125.000,1.000,90.000,5.000,0
"07/08/06","23:01:31","AMMA06",24823.000,"cc",28339.785,6.00,2833.979,1,6,0.100,15228.000,0.200,8448.000,0.300,932.000,0.500,133.000,1.000,82.000,5.000,0
"07/08/06","23:01:37","AMMA06",25124.000,"cc",28331.316,6.00,2833.132,1,6,0.100,15385.000,0.200,8440.000,0.300,998.000,0.500,196.000,1.000,105.000,5.000,0
"07/08/06","23:01:43","AMMA06",25232.000,"cc",28349.154,6.00,2834.916,1,6,0.100,15563.000,0.200,8422.000,0.300,967.000,0.500,172.000,1.000,108.000,5.000,0
"07/08/06","23:01:49","AMMA06",24808.000,"cc",28266.551,6.00,2826.655,1,6,0.100,15294.000,0.200,8368.000,0.300,931.000,0.500,139.000,1.000,76.000,5.000,0
"07/08/06","23:01:55","AMMA06",24922.000,"cc",28301.658,6.00,2830.166,1,6,0.100,15418.000,0.200,8429.000,0.300,869.000,0.500,128.000,1.000,78.000,5.000,0
"07/08/06","23:02:01","AMMA06",24634.000,"cc",28302.145,6.00,2830.215,1,6,0.100,15239.000,0.200,8270.000,0.300,884.000,0.500,147.000,1.000,94.000,5.000,0
"07/08/06","23:02:07","AMMA06",25151.000,"cc",28326.908,6.00,2832.691,1,6,0.100,15572.000,0.200,8421.000,0.300,913.000,0.500,151.000,1.000,94.000,5.000,0
"07/08/06","23:02:13","AMMA06",24885.000,"cc",28311.264,6.00,2831.127,1,6,0.100,15363.000,0.200,8382.000,0.300,922.000,0.500,124.000,1.000,94.000,5.000,0
"07/08/06","23:02:19","AMMA06",24726.000,"cc",28310.648,6.00,2831.065,1,6,0.100,15353.000,0.200,8232.000,0.300,916.000,0.500,151.000,1.000,74.000,5.000,0
"07/08/06","23:02:25","AMMA06",24780.000,"cc",28358.033,6.00,2835.804,1,6,0.100,15262.000,0.200,8404.000,0.300,904.000,0.500,124.000,1.000,86.000,5.000,0
"07/08/06","23:02:31","AMMA06",24739.000,"cc",28359.219,6.00,2835.922,1,6,0.100,15231.000,0.200,8404.000,0.300,900.000,0.500,126.000,1.000,78.000,5.000,0
"07/08/06","23:02:37","AMMA06",24528.000,"cc",28335.648,6.00,2833.565,1,6,0.100,15170.000,0.200,8346.000,0.300,821.000,0.500,117.000,1.000,74.000,5.000,0
"07/08/06","23:02:43","AMMA06",24706.000,"cc",28233.115,6.00,2823.312,1,6,0.100,15162.000,0.200,8433.000,0.300,914.000,0.500,119.000,1.000,78.000,5.000,0
"07/08/06","23:02:49","AMMA06",25110.000,"cc",28323.143,6.00,2832.315,1,6,0.100,15402.000,0.200,8580.000,0.300,899.000,0.500,141.000,1.000,88.000,5.000,0
"07/08/06","23:02:55","AMMA06",25012.000,"cc",28327.553,6.00,2832.755,1,6,0.100,15419.000,0.200,8512.000,0.300,864.000,0.500,132.000,1.000,85.000,5.000,0
"07/08/06","23:03:01","AMMA06",25010.000,"cc",28262.195,6.00,2826.220,1,6,0.100,15288.000,0.200,8620.000,0.300,890.000,0.500,123.000,1.000,89.000,5.000,0
"07/08/06","23:03:07","AMMA06",24865.000,"cc",28323.549,6.00,2832.355,1,6,0.100,15286.000,0.200,8497.000,0.300,876.000,0.500,123.000,1.000,83.000,5.000,0
"07/08/06","23:03:13","AMMA06",24797.000,"cc",28329.721,6.00,2832.972,1,6,0.100,15216.000,0.200,8491.000,0.300,885.000,0.500,117.000,1.000,88.000,5.000,0
"07/08/06","23:03:19","AMMA06",24898.000,"cc",28287.705,6.00,2828.771,1,6,0.100,15251.000,0.200,8569.000,0.300,868.000,0.500,119.000,1.000,91.000,5.000,0
"07/08/06","23:03:25","AMMA06",24824.000,"cc",28326.197,6.00,2832.620,1,6,0.100,15175.000,0.200,8513.000,0.300,921.000,0.500,145.000,1.000,70.000,5.000,0
"07/08/06","23:03:31","AMMA06",24976.000,"cc",28303.916,6.00,2830.392,1,6,0.100,15375.000,0.200,8535.000,0.300,878.000,0.500,125.000,1.000,63.000,5.000,0
"07/08/06","23:03:37","AMMA06",24786.000,"cc",28353.279,6.00,2835.328,1,6,0.100,15144.000,0.200,8542.000,0.300,910.000,0.500,125.000,1.000,65.000,5.000,0
"07/08/06","23:03:43","AMMA06",24680.000,"cc",28314.037,6.00,2831.404,1,6,0.100,15219.000,0.200,8370.000,0.300,883.000,0.500,130.000,1.000,78.000,5.000,0
"07/08/06","23:03:49","AMMA06",24863.000,"cc",28325.258,6.00,2832.526,1,6,0.100,15221.000,0.200,8461.000,0.300,983.000,0.500,131.000,1.000,67.000,5.000,0
"07/08/06","23:03:55","AMMA06",24617.000,"cc",28330.965,6.00,2833.097,1,6,0.100,15127.000,0.200,8422.000,0.300,894.000,0.500,111.000,1.000,63.000,5.000,0
"07/08/06","23:04:01","AMMA06",25105.000,"cc",28275.982,6.00,2827.598,1,6,0.100,15381.000,0.200,8626.000,0.300,895.000,0.500,127.000,1.000,76.000,5.000,0
"07/08/06","23:04:07","AMMA06",24896.000,"cc",28340.156,6.00,2834.016,1,6,0.100,15158.000,0.200,8619.000,0.300,924.000,0.500,116.000,1.000,79.000,5.000,0
"07/08/06","23:04:13","AMMA06",24938.000,"cc",28322.295,6.00,2832.230,1,6,0.100,15414.000,0.200,8414.000,0.300,882.000,0.500,139.000,1.000,89.000,5.000,0
"07/08/06","23:04:19","AMMA06",25084.000,"cc",28270.311,6.00,2827.031,1,6,0.100,15363.000,0.200,8502.000,0.300,980.000,0.500,161.000,1.000,78.000,5.000,0
"07/08/06","23:04:25","AMMA06",24574.000,"cc",28329.510,6.00,2832.951,1,6,0.100,15147.000,0.200,8319.000,0.300,906.000,0.500,136.000,1.000,66.000,5.000,0
"07/08/06","23:04:31","AMMA06",24978.000,"cc",28370.488,6.00,2837.049,1,6,0.100,15173.000,0.200,8670.000,0.300,925.000,0.500,140.000,1.000,70.000,5.000,0
"07/08/06","23:04:37","AMMA06",25223.000,"cc",28311.670,6.00,2831.167,1,6,0.100,15292.000,0.200,8620.000,0.300,975.000,0.500,220.000,1.000,116.000,5.000,0
"07/08/06","23:04:43","AMMA06",25829.000,"cc",28338.717,6.00,2833.872,1,6,0.100,15642.000,0.200,8700.000,0.300,1110.000,0.500,244.000,1.000,133.000,5.000,0
"07/08/06","23:04:49","AMMA06",24763.000,"cc",28283.197,6.00,2828.320,1,6,0.100,15202.000,0.200,8440.000,0.300,929.000,0.500,111.000,1.000,81.000,5.000,0
"07/08/06","23:04:55","AMMA06",25039.000,"cc",28342.490,6.00,2834.249,1,6,0.100,15337.000,0.200,8527.000,0.300,908.000,0.500,156.000,1.000,111.000,5.000,0
"07/08/06","23:05:01","AMMA06",25313.000,"cc",28305.609,6.00,2830.561,1,6,0.100,15501.000,0.200,8512.000,0.300,1027.000,0.500,177.000,1.000,96.000,5.000,0
"07/08/06","23:05:07","AMMA06",25243.000,"cc",28340.059,6.00,2834.006,1,6,0.100,15438.000,0.200,8621.000,0.300,953.000,0.500,146.000,1.000,85.000,5.000,0
"07/08/06","23:05:13","AMMA06",25119.000,"cc",28341.354,6.00,2834.136,1,6,0.100,15317.000,0.200,8569.000,0.300,990.000,0.500,146.000,1.000,97.000,5.000,0
"07/08/06","23:05:19","AMMA06",24882.000,"cc",28260.008,6.00,2826.001,1,6,0.100,15341.000,0.200,8326.000,0.300,984.000,0.500,140.000,1.000,91.000,5.000,0
"07/08/06","23:05:25","AMMA06",25043.000,"cc",28286.006,6.00,2828.601,1,6,0.100,15332.000,0.200,8592.000,0.300,919.000,0.500,126.000,1.000,74.000,5.000,0
"07/08/06","23:05:31","AMMA06",25588.000,"cc",28370.195,6.00,2837.020,1,6,0.100,15619.000,0.200,8699.000,0.300,993.000,0.500,179.000,1.000,98.000,5.000,0
"07/08/06","23:05:37","AMMA06",25411.000,"cc",28343.447,6.00,2834.345,1,6,0.100,15480.000,0.200,8663.000,0.300,1000.000,0.500,174.000,1.000,94.000,5.000,0
"07/08/06","23:05:43","AMMA06",25094.000,"cc",28296.070,6.00,2829.607,1,6,0.100,15347.000,0.200,8526.000,0.300,984.000,0.500,148.000,1.000,89.000,5.000,0
"07/08/06","23:05:49","AMMA06",25151.000,"cc",28280.156,6.00,2828.016,1,6,0.100,15514.000,0.200,8558.000,0.300,893.000,0.500,114.000,1.000,72.000,5.000,0
"07/08/06","23:05:55","AMMA06",24983.000,"cc",28290.352,6.00,2829.035,1,6,0.100,15418.000,0.200,8454.000,0.300,909.000,0.500,124.000,1.000,78.000,5.000,0
"07/08/06","23:06:01","AMMA06",25200.000,"cc",28307.176,6.00,2830.718,1,6,0.100,15402.000,0.200,8573.000,0.300,986.000,0.500,149.000,1.000,90.000,5.000,0
"07/08/06","23:06:07","AMMA06",25143.000,"cc",28320.361,6.00,2832.036,1,6,0.100,15169.000,0.200,8751.000,0.300,984.000,0.500,149.000,1.000,90.000,5.000,0
"07/08/06","23:06:13","AMMA06",25134.000,"cc",28351.488,6.00,2835.149,1,6,0.100,15260.000,0.200,8683.000,0.300,949.000,0.500,158.000,1.000,84.000,5.000,0
"07/08/06","23:06:19","AMMA06",25167.000,"cc",28334.443,6.00,2833.445,1,6,0.100,15384.000,0.200,8615.000,0.300,965.000,0.500,136.000,1.000,67.000,5.000,0
"07/08/06","23:06:25","AMMA06",25156.000,"cc",28294.482,6.00,2829.449,1,6,0.100,15268.000,0.200,8725.000,0.300,964.000,0.500,116.000,1.000,83.000,5.000,0
"07/08/06","23:06:31","AMMA06",25099.000,"cc",28365.902,6.00,2836.590,1,6,0.100,15145.000,0.200,8723.000,0.300,1016.000,0.500,143.000,1.000,72.000,5.000,0
"07/08/06","23:06:37","AMMA06",25185.000,"cc",28322.647,6.00,2832.265,1,6,0.100,15270.000,0.200,8750.000,0.300,966.000,0.500,120.000,1.000,79.000,5.000,0
"07/08/06","23:06:43","AMMA06",24881.000,"cc",28276.705,6.00,2827.671,1,6,0.100,15174.000,0.200,8569.000,0.300,947.000,0.500,108.000,1.000,83.000,5.000,0
"07/08/06","23:06:49","AMMA06",25189.000,"cc",28315.211,6.00,2831.521,1,6,0.100,15368.000,0.200,8674.000,0.300,949.000,0.500,118.000,1.000,80.000,5.000,0
"07/08/06","23:06:55","AMMA06",25269.000,"cc",28316.756,6.00,2831.676,1,6,0.100,15223.000,0.200,8885.000,0.300,990.000,0.500,102.000,1.000,69.000,5.000,0
"07/08/06","23:07:01","AMMA06",25458.000,"cc",28335.338,6.00,2833.534,1,6,0.100,15461.000,0.200,8804.000,0.300,975.000,0.500,121.000,1.000,97.000,5.000,0
"07/08/06","23:07:07","AMMA06",24837.000,"cc",28301.502,6.00,2830.150,1,6,0.100,15075.000,0.200,8666.000,0.300,903.000,0.500,123.000,1.000,70.000,5.000,0
"07/08/06","23:07:13","AMMA06",25024.000,"cc",28375.947,6.00,2837.595,1,6,0.100,15275.000,0.200,8628.000,0.300,934.000,0.500,112.000,1.000,75.000,5.000,0
"07/08/06","23:07:19","AMMA06",25030.000,"cc",28298.336,6.00,2829.834,1,6,0.100,15099.000,0.200,8756.000,0.300,993.000,0.500,118.000,1.000,64.000,5.000,0
"07/08/06","23:07:25","AMMA06",25464.000,"cc",28250.965,6.00,2825.097,1,6,0.100,15493.000,0.200,8606.000,0.300,1046.000,0.500,210.000,1.000,109.000,5.000,0
"07/08/06","23:07:31","AMMA06",25035.000,"cc",28328.647,6.00,2832.865,1,6,0.100,15444.000,0.200,8401.000,0.300,995.000,0.500,123.000,1.000,72.000,5.000,0
"07/08/06","23:07:37","AMMA06",24900.000,"cc",28310.977,6.00,2831.098,1,6,0.100,15288.000,0.200,8525.000,0.300,898.000,0.500,120.000,1.000,69.000,5.000,0
"07/08/06","23:07:43","AMMA06",25308.000,"cc",28277.412,6.00,2827.742,1,6,0.100,15575.000,0.200,8573.000,0.300,953.000,0.500,131.000,1.000,76.000,5.000,0
"07/08/06","23:07:49","AMMA06",25116.000,"cc",28310.147,6.00,2831.015,1,6,0.100,15299.000,0.200,8655.000,0.300,947.000,0.500,133.000,1.000,82.000,5.000,0
"07/08/06","23:07:55","AMMA06",25249.000,"cc",28301.082,6.00,2830.108,1,6,0.100,15496.000,0.200,8646.000,0.300,915.000,0.500,123.000,1.000,69.000,5.000,0
"07/08/06","23:08:01","AMMA06",24922.000,"cc",28299.994,6.00,2830.000,1,6,0.100,15292.000,0.200,8474.000,0.300,958.000,0.500,120.000,1.000,78.000,5.000,0
"07/08/06","23:08:07","AMMA06",25173.000,"cc",28355.258,6.00,2835.526,1,6,0.100,15498.000,0.200,8599.000,0.300,908.000,0.500,101.000,1.000,67.000,5.000,0
"07/08/06","23:08:13","AMMA06",24957.000,"cc",28386.279,6.00,2838.628,1,6,0.100,15395.000,0.200,8493.000,0.300,912.000,0.500,95.000,1.000,62.000,5.000,0
"07/08/06","23:08:19","AMMA06",25375.000,"cc",28316.961,6.00,2831.696,1,6,0.100,15536.000,0.200,8723.000,0.300,908.000,0.500,143.000,1.000,65.000,5.000,0
"07/08/06","23:08:25","AMMA06",25194.000,"cc",28336.641,6.00,2833.664,1,6,0.100,15512.000,0.200,8564.000,0.300,942.000,0.500,113.000,1.000,63.000,5.000,0
"07/08/06","23:08:31","AMMA06",25138.000,"cc",28259.996,6.00,2826.000,1,6,0.100,15464.000,0.200,8610.000,0.300,896.000,0.500,92.000,1.000,76.000,5.000,0
"07/08/06","23:08:37","AMMA06",25427.000,"cc",28283.799,6.00,2828.380,1,6,0.100,15617.000,0.200,8710.000,0.300,918.000,0.500,117.000,1.000,65.000,5.000,0
"07/08/06","23:08:43","AMMA06",25235.000,"cc",28352.049,6.00,2835.205,1,6,0.100,15516.000,0.200,8593.000,0.300,919.000,0.500,127.000,1.000,80.000,5.000,0
"07/08/06","23:08:49","AMMA06",24990.000,"cc",28295.654,6.00,2829.566,1,6,0.100,15291.000,0.200,8567.000,0.300,934.000,0.500,120.000,1.000,78.000,5.000,0
"07/08/06","23:08:55","AMMA06",25364.000,"cc",28391.949,6.00,2839.195,1,6,0.100,15602.000,0.200,8644.000,0.300,945.000,0.500,120.000,1.000,53.000,5.000,0
"07/08/06","23:09:01","AMMA06",25304.000,"cc",28324.285,6.00,2832.429,1,6,0.100,15422.000,0.200,8722.000,0.300,945.000,0.500,129.000,1.000,86.000,5.000,0
"07/08/06","23:09:07","AMMA06",24987.000,"cc",28304.121,6.00,2830.412,1,6,0.100,15204.000,0.200,8702.000,0.300,864.000,0.500,148.000,1.000,69.000,5.000,0
"07/08/06","23:09:13","AMMA06",25152.000,"cc",28329.031,6.00,2832.903,1,6,0.100,15387.000,0.200,8617.000,0.300,958.000,0.500,119.000,1.000,71.000,5.000,0
"07/08/06","23:09:19","AMMA06",24727.000,"cc",28321.074,6.00,2832.108,1,6,0.100,15276.000,0.200,8347.000,0.300,901.000,0.500,118.000,1.000,85.000,5.000,0
"07/08/06","23:09:25","AMMA06",25056.000,"cc",28304.213,6.00,2830.421,1,6,0.100,15396.000,0.200,8587.000,0.300,890.000,0.500,103.000,1.000,80.000,5.000,0
"07/08/06","23:09:31","AMMA06",25099.000,"cc",28292.904,6.00,2829.291,1,6,0.100,15306.000,0.200,8641.000,0.300,950.000,0.500,127.000,1.000,75.000,5.000,0
"07/08/06","23:09:37","AMMA06",25073.000,"cc",28313.334,6.00,2831.334,1,6,0.100,15508.000,0.200,8409.000,0.300,959.000,0.500,124.000,1.000,73.000,5.000,0
"07/08/06","23:09:43","AMMA06",25301.000,"cc",28318.619,6.00,2831.862,1,6,0.100,15606.000,0.200,8555.000,0.300,939.000,0.500,129.000,1.000,72.000,5.000,0
"07/08/06","23:09:49","AMMA06",24874.000,"cc",28352.973,6.00,2835.297,1,6,0.100,15200.000,0.200,8556.000,0.300,907.000,0.500,143.000,1.000,68.000,5.000,0
"07/08/06","23:09:55","AMMA06",25262.000,"cc",28294.754,6.00,2829.476,1,6,0.100,15475.000,0.200,8665.000,0.300,926.000,0.500,129.000,1.000,67.000,5.000,0
"07/08/06","23:10:01","AMMA06",25174.000,"cc",28292.691,6.00,2829.269,1,6,0.100,15420.000,0.200,8632.000,0.300,916.000,0.500,113.000,1.000,93.000,5.000,0
"07/08/06","23:10:07","AMMA06",24917.000,"cc",28333.022,6.00,2833.302,1,6,0.100,15335.000,0.200,8516.000,0.300,880.000,0.500,128.000,1.000,58.000,5.000,0
"07/08/06","23:10:13","AMMA06",24965.000,"cc",28323.297,6.00,2832.330,1,6,0.100,15320.000,0.200,8572.000,0.300,887.000,0.500,119.000,1.000,67.000,5.000,0
"07/08/06","23:10:19","AMMA06",24882.000,"cc",28295.768,6.00,2829.577,1,6,0.100,15318.000,0.200,8443.000,0.300,930.000,0.500,128.000,1.000,63.000,5.000,0
"07/08/06","23:10:25","AMMA06",24839.000,"cc",28311.490,6.00,2831.149,1,6,0.100,15271.000,0.200,8471.000,0.300,928.000,0.500,96.000,1.000,73.000,5.000,0
"07/08/06","23:10:31","AMMA06",24944.000,"cc",28329.313,6.00,2832.931,1,6,0.100,15539.000,0.200,8312.000,0.300,895.000,0.500,126.000,1.000,72.000,5.000,0
"07/08/06","23:10:37","AMMA06",25103.000,"cc",28318.688,6.00,2831.869,1,6,0.100,15506.000,0.200,8513.000,0.300,893.000,0.500,129.000,1.000,62.000,5.000,0
"07/08/06","23:10:43","AMMA06",25070.000,"cc",28335.674,6.00,2833.568,1,6,0.100,15411.000,0.200,8554.000,0.300,882.000,0.500,132.000,1.000,91.000,5.000,0
"07/08/06","23:10:49","AMMA06",24932.000,"cc",28295.662,6.00,2829.566,1,6,0.100,15393.000,0.200,8508.000,0.300,823.000,0.500,125.000,1.000,83.000,5.000,0
"07/08/06","23:10:55","AMMA06",24987.000,"cc",28309.236,6.00,2830.924,1,6,0.100,15447.000,0.200,8515.000,0.300,843.000,0.500,116.000,1.000,66.000,5.000,0
"07/08/06","23:11:01","AMMA06",25148.000,"cc",28304.033,6.00,2830.404,1,6,0.100,15514.000,0.200,8604.000,0.300,833.000,0.500,120.000,1.000,77.000,5.000,0
"07/08/06","23:11:07","AMMA06",25326.000,"cc",28313.129,6.00,2831.313,1,6,0.100,15695.000,0.200,8495.000,0.300,895.000,0.500,163.000,1.000,78.000,5.000,0
"07/08/06","23:11:13","AMMA06",25427.000,"cc",28296.315,6.00,2829.632,1,6,0.100,15822.000,0.200,8524.000,0.300,870.000,0.500,125.000,1.000,86.000,5.000,0
"07/08/06","23:11:19","AMMA06",24854.000,"cc",28324.109,6.00,2832.411,1,6,0.100,15192.000,0.200,8522.000,0.300,924.000,0.500,138.000,1.000,78.000,5.000,0
"07/08/06","23:11:25","AMMA06",25207.000,"cc",28315.457,6.00,2831.546,1,6,0.100,15613.000,0.200,8517.000,0.300,880.000,0.500,128.000,1.000,69.000,5.000,0
"07/08/06","23:11:31","AMMA06",25593.000,"cc",28329.219,6.00,2832.922,1,6,0.100,15746.000,0.200,8657.000,0.300,897.000,0.500,187.000,1.000,106.000,5.000,0
"07/08/06","23:11:37","AMMA06",25552.000,"cc",28300.361,6.00,2830.036,1,6,0.100,15763.000,0.200,8635.000,0.300,930.000,0.500,146.000,1.000,78.000,5.000,0
"07/08/06","23:11:43","AMMA06",25359.000,"cc",28366.299,6.00,2836.630,1,6,0.100,15639.000,0.200,8580.000,0.300,911.000,0.500,144.000,1.000,85.000,5.000,0
"07/08/06","23:11:49","AMMA06",25161.000,"cc",28305.604,6.00,2830.561,1,6,0.100,15513.000,0.200,8504.000,0.300,939.000,0.500,136.000,1.000,69.000,5.000,0
"07/08/06","23:11:55","AMMA06",25283.000,"cc",28282.549,6.00,2828.255,1,6,0.100,15569.000,0.200,8654.000,0.300,865.000,0.500,115.000,1.000,80.000,5.000,0
"07/08/06","23:12:01","AMMA06",29632.000,"cc",28303.594,6.00,2830.360,1,6,0.100,19847.000,0.200,8633.000,0.300,913.000,0.500,149.000,1.000,90.000,5.000,0
"07/08/06","23:12:07","AMMA06",55434.000,"cc",28328.131,6.00,2832.813,1,6,0.100,45772.000,0.200,8515.000,0.300,916.000,0.500,155.000,1.000,76.000,5.000,0
"07/08/06","23:12:13","AMMA06",97647.000,"cc",28326.856,6.00,2832.686,1,6,0.100,87408.000,0.200,9095.000,0.300,898.000,0.500,153.000,1.000,93.000,5.000,0
"07/08/06","23:12:19","AMMA06",120737.000,"cc",28335.475,6.00,2833.548,1,6,0.100,110679.000,0.200,8950.000,0.300,909.000,0.500,117.000,1.000,82.000,5.000,0
"07/08/06","23:12:25","AMMA06",114732.000,"cc",28374.469,6.00,2837.447,1,6,0.100,104502.000,0.200,9148.000,0.300,871.000,0.500,124.000,1.000,87.000,5.000,0
"07/08/06","23:12:31","AMMA06",171969.000,"cc",28293.139,6.00,2829.314,1,6,0.100,161530.000,0.200,9331.000,0.300,917.000,0.500,131.000,1.000,60.000,5.000,0
"07/08/06","23:12:37","AMMA06",207074.000,"cc",28312.234,6.00,2831.224,1,6,0.100,196139.000,0.200,9738.000,0.300,964.000,0.500,147.000,1.000,86.000,5.000,0
"07/08/06","23:12:43","AMMA06",254391.000,"cc",28285.789,6.00,2828.579,1,6,0.100,243069.000,0.200,10115.000,0.300,960.000,0.500,162.000,1.000,85.000,5.000,0
"07/08/06","23:12:49","AMMA06",192496.000,"cc",28299.148,6.00,2829.915,1,6,0.100,180135.000,0.200,11071.000,0.300,1043.000,0.500,162.000,1.000,85.000,5.000,0
"07/08/06","23:12:55","AMMA06",117971.000,"cc",28314.256,6.00,2831.426,1,6,0.100,105161.000,0.200,11493.000,0.300,1047.000,0.500,186.000,1.000,84.000,5.000,0
"07/08/06","23:13:01","AMMA06",194210.000,"cc",28336.049,6.00,2833.605,1,6,0.100,179161.000,0.200,13673.000,0.300,1112.000,0.500,168.000,1.000,96.000,5.000,0
"07/08/06","23:13:07","AMMA06",180784.000,"cc",28309.482,6.00,2830.949,1,6,0.100,165919.000,0.200,13522.000,0.300,1076.000,0.500,180.000,1.000,87.000,5.000,0
"07/08/06","23:13:13","AMMA06",193106.000,"cc",28333.246,6.00,2833.325,1,6,0.100,178089.000,0.200,13582.000,0.300,1136.000,0.500,201.000,1.000,98.000,5.000,0
"07/08/06","23:13:19","AMMA06",193882.000,"cc",28332.273,6.00,2833.228,1,6,0.100,178784.000,0.200,13682.000,0.300,1144.000,0.500,173.000,1.000,99.000,5.000,0
"07/08/06","23:13:25","AMMA06",174401.000,"cc",28263.891,6.00,2826.389,1,6,0.100,160578.000,0.200,12407.000,0.300,1134.000,0.500,214.000,1.000,68.000,5.000,0
"07/08/06","23:13:31","AMMA06",316841.000,"cc",28303.701,6.00,2830.370,1,6,0.100,305118.000,0.200,10487.000,0.300,992.000,0.500,153.000,1.000,91.000,5.000,0
"07/08/06","23:13:37","AMMA06",184025.000,"cc",28362.973,6.00,2836.297,1,6,0.100,173641.000,0.200,9221.000,0.300,962.000,0.500,135.000,1.000,66.000,5.000,0
"07/08/06","23:13:43","AMMA06",50962.000,"cc",28326.229,6.00,2832.623,1,6,0.100,41254.000,0.200,8689.000,0.300,831.000,0.500,129.000,1.000,59.000,5.000,0
"07/08/06","23:13:49","AMMA06",30005.000,"cc",28317.350,6.00,2831.735,1,6,0.100,20452.000,0.200,8447.000,0.300,894.000,0.500,134.000,1.000,78.000,5.000,0
"07/08/06","23:13:55","AMMA06",26734.000,"cc",28285.680,6.00,2828.568,1,6,0.100,16990.000,0.200,8591.000,0.300,965.000,0.500,114.000,1.000,74.000,5.000,0
"07/08/06","23:14:01","AMMA06",25902.000,"cc",28317.127,6.00,2831.713,1,6,0.100,16110.000,0.200,8623.000,0.300,954.000,0.500,140.000,1.000,75.000,5.000,0
"07/08/06","23:14:07","AMMA06",25327.000,"cc",28307.348,6.00,2830.735,1,6,0.100,15589.000,0.200,8634.000,0.300,908.000,0.500,124.000,1.000,72.000,5.000,0
"07/08/06","23:14:13","AMMA06",25308.000,"cc",28322.113,6.00,2832.211,1,6,0.100,15613.000,0.200,8533.000,0.300,961.000,0.500,124.000,1.000,77.000,5.000,0
"07/08/06","23:14:19","AMMA06",25926.000,"cc",28300.260,6.00,2830.026,1,6,0.100,16243.000,0.200,8577.000,0.300,885.000,0.500,144.000,1.000,77.000,5.000,0
"07/08/06","23:14:25","AMMA06",25264.000,"cc",28282.758,6.00,2828.276,1,6,0.100,15504.000,0.200,8637.000,0.300,940.000,0.500,105.000,1.000,78.000,5.000,0
"07/08/06","23:14:31","AMMA06",25754.000,"cc",28298.930,6.00,2829.893,1,6,0.100,15781.000,0.200,8865.000,0.300,923.000,0.500,114.000,1.000,71.000,5.000,0